Regional Weather Roundup
Issued by NWS

Home | Current Version | Previous Version | Text Only | Print | Product List | Glossary On
Versions: 1 2 3 4 5 6 7 8 9 10 11 12 13 14 15 16 17 18 19 20 21 22 23 24 25 26 27 28 29 30 31 32 33 34 35 36 37 38 39 40 41 42 43 44 45 46 47 48 49 50
000
ASCA42 TJSJ 290310
RWRPR
PUERTO RICO/U.S. VIRGIN ISLANDS HOURLY WEATHER ROUNDUP
NATIONAL WEATHER SERVICE SAN JUAN PR
1100 PM AST FRI AUG 28 2015

PRZ001-004-290400-
PUERTO RICO

CITY           SKY/WX    TMP DP  RH WIND       PRES   REMARKS
SAN JUAN LMM   PTCLDY    82  77  83 E9        30.04S HX  91
PONCE          PTCLDY    82  77  83 E9        29.97  HX  91
AGUADILLA      CLEAR     79  73  83 SE10      30.02R
$$

PRZ006-007-290400-
U.S. VIRGIN ISLANDS

CITY           SKY/WX    TMP DP  RH WIND       PRES   REMARKS
CHARLOTTE AMA  CLEAR     84  75  74 E13       30.03S HX  92
CHRISTIANSTED  CLEAR     81  75  83 E12       30.04S
$$

HOURLY WEATHER ROUNDUP FOR THE NEWS MEDIA

CITY           SKY/WX    TMP DP  RH WIND       PRES   REMARKS
ORLANDO        CLOUDY    77  77 100 CALM      30.09R
NEW YORK       PTCLDY    74  61  63 CALM      30.20S
NEWARK         PTCLDY    72  53  51 NE5       30.19S
CHICAGO        CLOUDY    70  63  78 E9        30.07F
HARTFORD       CLEAR     62  59  90 SW3       30.16S
BOSTON         PTCLDY    71  59  65 SW7       30.16R
DALLAS         PTCLDY    86  64  47 SE14      29.95R
PHILADELPHIA   CLEAR     73  58  59 SE3       30.19S
LOS ANGELES    PTCLDY    75  67  76 W7        29.82R
WASHINGTON DC  MOCLDY    72  61  68 S6        30.20R


USA.gov is the U.S. government's official web portal to all federal, state and local government web resources and services.